Location: Wapato
(46.4478°N, 120.4212°W)
Time: 23:54:52
(UTC+00:00)

S-56A Canister/Altair - Pass Details

Date: 23 May 2026
Orbit: 633 x 2484 km, 38.9° (Epoch: 7 June)

Event Time Altitude Azimuth Distance (km) Brightness Sun altitude
Rises 05:49:04 0° 264° (W) 3,038 11.0 -16.9°
Reaches altitude 10° 05:51:51 10° 250° (WSW) 2,036 9.8 -17.1°
Maximum altitude 05:55:24 23° 197° (SSW) 1,341 8.4 -17.4°
Enters shadow 05:55:27 23° 196° (SSW) 1,342 8.4 -17.4°
